Regional Weather Roundup
Issued by NWS Glasgow, MT

Home | Current Version | Previous Version | Text Only | Print | Product List | Glossary On
Versions: 1 2 3 4 5 6 7 8 9 10 11 12 13 14 15 16 17 18 19 20 21 22 23 24 25 26 27 28 29 30 31 32 33 34 35 36 37 38 39 40 41 42 43 44 45 46 47 48 49 50
106
ASUS45 KGGW 190915
RWRGGW
HOURLY REGIONAL WEATHER ROUNDUP FOR NORTHEAST MONTANA
NATIONAL WEATHER SERVICE GLASGOW MONTANA
200 AM MST FRI JAN 19 2018

NOTE: "FAIR" INDICATES FEW OR NO CLOUDS BELOW 12,000 FEET WITH NO
SIGNIFICANT WEATHER AND/OR OBSTRUCTIONS TO VISISBILITY.

NORTHEAST MONTANA


CITY           SKY/WX    TMP DP  RH WIND       PRES   REMARKS
GLASGOW        CLOUDY    38  32  79 NW12      29.59R
PLENTYWOOD       N/A     39  30  70 W12G25      N/A
WOLF POINT     LGT RAIN  40  32  73 W10       29.63R
JORDAN           N/A     37  32  82 W6        29.61F
WINNETT          N/A     34  32  92 SW10G20     N/A
SIDNEY         CLOUDY    34  29  82 S8        29.57F
GLENDIVE       CLOUDY    30  26  85 SE3       29.60S
MALTA            N/A     38  33  82 W8          N/A
SCOBEY           N/A     38  27  65 MISG      29.55F

FORT PECK REPORTS


CITY           SKY/WX    TMP DP  RH WIND       PRES   REMARKS
FORT PECK        N/A     39  32  76 NW9G20      N/A
THE PINES        N/A     43  30  60 W8G18       N/A

SOUTHEAST MONTANA


CITY           SKY/WX    TMP DP  RH WIND       PRES   REMARKS
BILLINGS       MOCLDY    38  30  73 N18       29.66R
MILES CITY     MOCLDY    26  23  88 NW13      29.61S
BAKER          MOCLDY    27  24  89 CALM      29.58F
LIVINGSTON     LGT SNOW  34  34 100 SW8       29.69F FOG

CENTRAL MONTANA


CITY           SKY/WX    TMP DP  RH WIND       PRES   REMARKS
HAVRE          CLOUDY    38  31  76 SW24      29.59S
LEWISTOWN      CLOUDY    34  33  96 W6        29.65F
GREAT FALLS    CLOUDY    35  31  85 S15       29.64F
CUT BANK       CLOUDY    33  24  69 SW10      29.60F
HELENA         MIX PCPN  35  34  96 S5        29.70S
BUTTE          LGT SNOW  33  31  92 N3        29.67F VSB 1
BOZEMAN        LGT SNOW  33  31  92 S3        29.71F FOG

WESTERN MONTANA


CITY           SKY/WX    TMP DP  RH WIND       PRES   REMARKS
MISSOULA       FOG       33  32  96 CALM      29.74F VSB 1/2
KALISPELL      NOT AVBL

NORTH DAKOTA


CITY           SKY/WX    TMP DP  RH WIND       PRES   REMARKS
WILLISTON      CLOUDY    54  31  41 SW9       29.55F
DICKINSON      CLOUDY    34  26  72 W9        29.56S
MINOT          PTCLDY    38  30  73 SW15      29.50R
BISMARCK       CLOUDY    27  24  89 CALM      29.56F

SOUTHERN SASKATCHEWAN


CITY           SKY/WX    TMP DP  RH WIND       PRES   REMARKS
REGINA         CLOUDY    34  27  75 W14G21    29.41R
ESTEVAN        CLOUDY    37  30  75 W15       29.46F
SWIFT CURRENT  MOCLDY    34  27  75 W21G31    29.45F





USA.gov is the U.S. government's official web portal to all federal, state and local government web resources and services.